CW7575 Weather Reports


time (UTC)temp
F
wind
direction
speed
knots
gust
knots
rain 1hr
in
rain 24hr
in
rain mn
in
humidity
%
barometer
mb
20260504231555 62 167 4.3 13.0 0.00 0.00 0.00 50 1007.9
20260504230016 63 148 2.6 13.9 0.00 0.00 0.00 48 1007.8
20260504224535 64 180 2.6 8.7 0.00 0.00 0.00 46 1007.8
20260504223059 64 159 3.5 11.3 0.00 0.00 0.00 45 1007.6
20260504221524 65 160 2.6 8.7 0.00 0.00 0.00 45 1007.5
20260504220052 65 141 5.2 15.6 0.00 0.00 0.00 43 1007.5
20260504214512 67 151 5.2 10.4 0.00 0.00 0.00 41 1007.4
20260504213035 67 155 5.2 12.2 0.00 0.00 0.00 39 1007.3
20260504211605 68 186 3.5 13.0 0.00 0.00 0.00 38 1007.4
20260504211508 68 209 3.5 13.0 0.00 0.00 0.00 39 1007.3
20260504210027 68 192 6.1 14.8 0.00 0.00 0.00 38 1007.2
20260504204634 68 151 5.2 10.4 0.00 0.00 0.00 38 1007.2
20260504203012 68 163 7.0 13.9 0.00 0.00 0.00 37 1007.1
20260504201531 69 183 3.5 9.6 0.00 0.00 0.00 36 1007.2
20260504200057 69 185 6.1 14.8 0.00 0.00 0.00 35 1007.2
20260504194521 70 191 4.3 11.3 0.00 0.00 0.00 33 1007.2
20260504193041 70 157 5.2 14.8 0.00 0.00 0.00 32 1007.2
20260504191502 69 161 4.3 13.9 0.00 0.00 0.00 32 1007.2
20260504190023 70 190 4.3 13.9 0.00 0.00 0.00 31 1007.3
20260504184601 69 155 5.2 15.6 0.00 0.00 0.00 32 1007.5
20260504183006 69 163 5.2 12.2 0.00 0.00 0.00 30 1007.6
20260504181529 69 142 6.1 11.3 0.00 0.00 0.00 31 1007.9
20260504180053 69 170 5.2 13.9 0.00 0.00 0.00 30 1008.0
20260504180001 69 206 5.2 13.9 0.00 0.00 0.00 33 1008.0
20260504174517 68 148 5.2 13.9 0.00 0.00 0.00 32 1008.1
20260504173043 67 202 3.5 18.2 0.00 0.00 0.00 32 1008.1
20260504171559 67 194 4.3 13.0 0.00 0.00 0.00 32 1008.2
20260504171503 67 244 6.1 13.0 0.00 0.00 0.00 31 1008.0
20260504081558 41 241 0.0 0.9 0.00 0.00 0.00 73 1010.1
20260504050004 38 319 0.0 0.9 0.00 0.00 0.00 74 1010.2
20260504044527 38 360 0.0 0.0 0.00 0.00 0.00 71 1010.4
20260504043050 39 319 0.0 0.9 0.00 0.00 0.00 68 1010.4
20260504041507 40 360 0.0 1.7 0.00 0.00 0.00 66 1010.2
20260504040035 40 360 0.0 0.9 0.00 0.00 0.00 65 1010.0
20260504034609 40 319 0.0 1.7 0.00 0.00 0.00 64 1010.0
20260504033024 40 319 0.0 1.7 0.00 0.00 0.00 63 1010.0
20260504031542 40 360 0.0 0.0 0.00 0.00 0.00 64 1009.9
20260504030013 41 319 0.0 0.0 0.00 0.00 0.00 63 1009.8
20260504024534 42 360 0.0 0.9 0.00 0.00 0.00 62 1009.7
20260504023058 43 319 0.0 0.9 0.00 0.00 0.00 58 1009.6
20260504021528 44 360 0.0 0.0 0.00 0.00 0.00 54 1009.5
20260504020048 44 319 0.9 2.6 0.00 0.00 0.00 52 1009.3
20260504014516 43 360 0.0 1.7 0.00 0.00 0.00 56 1009.3
20260504013036 43 320 0.0 0.9 0.00 0.00 0.00 56 1009.2
20260504011501 44 319 0.0 0.0 0.00 0.00 0.00 56 1009.0
20260504010023 45 319 0.0 0.0 0.00 0.00 0.00 52 1008.7
20260504004552 46 360 0.0 0.0 0.00 0.00 0.00 51 1008.4
20260504003018 47 320 0.0 0.0 0.00 0.00 0.00 49 1008.4
20260504001543 49 320 0.0 0.0 0.00 0.00 0.00 46 1008.2
20260504000006 51 320 0.0 0.0 0.00 0.00 0.00 42 1008.0
20260503234542 52 360 0.0 2.6 0.00 0.00 0.00 39 1008.0
20260503233052 53 360 0.9 3.5 0.00 0.00 0.00 37 1007.9